TimeCET,TemperatureF,Dew PointF,Humidity,Sea Level PressureIn,VisibilityMPH,Wind Direction,Wind SpeedMPH,Gust SpeedMPH,PrecipitationIn,Events,Conditions,WindDirDegrees,DateUTC
12:00 AM,39.2,37.4,93,29.74,-9999.0,Variable,1.2,-,N/A,,Clear,0,2013-03-19 23:00:00
12:30 AM,37.4,35.6,93,29.74,-9999.0,Variable,1.2,-,N/A,,Clear,0,2013-03-19 23:30:00
1:00 AM,36,34,91,29.77,19,Calm,Calm,,,,,,2013-03-20 00:00:00
1:00 AM,35.6,33.8,93,29.74,-9999.0,Calm,Calm,-,N/A,,Clear,0,2013-03-20 00:00:00
1:30 AM,35.6,33.8,93,29.74,-9999.0,Variable,1.2,-,N/A,,Clear,0,2013-03-20 00:30:00
2:00 AM,35.6,33.8,93,29.74,-9999.0,Variable,2.3,-,N/A,,Clear,0,2013-03-20 01:00:00
2:30 AM,37.4,35.6,93,29.74,-9999.0,Variable,2.3,-,N/A,,Clear,0,2013-03-20 01:30:00
3:00 AM,33.8,33.8,100,29.74,-9999.0,Variable,2.3,-,N/A,,Clear,0,2013-03-20 02:00:00
3:30 AM,37.4,35.6,93,29.74,-9999.0,East,4.6,-,N/A,,Clear,90,2013-03-20 02:30:00
4:00 AM,40,38,90,29.76,19,East,4.5,,,,,90,2013-03-20 03:00:00
4:00 AM,39.2,37.4,93,29.74,-9999.0,East,4.6,-,N/A,,Clear,90,2013-03-20 03:00:00
4:30 AM,35.6,33.8,93,29.74,-9999.0,East,4.6,-,N/A,,Clear,90,2013-03-20 03:30:00
5:00 AM,35,33,89,29.77,19,ESE,2.2,,,,,110,2013-03-20 04:00:00
5:00 AM,35.6,33.8,93,29.74,-9999.0,Variable,2.3,-,N/A,,Clear,0,2013-03-20 04:00:00
5:30 AM,33.8,32.0,93,29.74,-9999.0,Variable,2.3,-,N/A,,Clear,0,2013-03-20 04:30:00
6:00 AM,36,35,93,29.77,19,ESE,4.5,,,,,110,2013-03-20 05:00:00
6:00 AM,35.6,35.6,100,29.74,-9999.0,ESE,4.6,-,N/A,,Clear,110,2013-03-20 05:00:00
6:30 AM,37.4,35.6,93,29.74,-9999.0,ESE,4.6,-,N/A,,Clear,120,2013-03-20 05:30:00
7:00 AM,39,37,91,29.78,19,East,4.5,,,,Clear,90,2013-03-20 06:00:00
7:00 AM,39.2,37.4,93,29.74,-9999.0,East,4.6,-,N/A,,Clear,90,2013-03-20 06:00:00
7:30 AM,46.4,46.4,100,29.74,-9999.0,Variable,2.3,-,N/A,,Clear,0,2013-03-20 06:30:00
8:00 AM,53,48,77,29.78,19,ESE,2.2,,,,Clear,110,2013-03-20 07:00:00
8:00 AM,51.8,48.2,88,29.77,-9999.0,Variable,1.2,-,N/A,,Clear,0,2013-03-20 07:00:00
8:30 AM,53.6,44.6,72,29.77,-9999.0,Variable,2.3,-,N/A,,Clear,0,2013-03-20 07:30:00
9:00 AM,53,45,65,29.78,19,East,6.7,,,,Scattered Clouds,90,2013-03-20 08:00:00
9:00 AM,53.6,44.6,72,29.77,6.2,East,6.9,-,N/A,,Partly Cloudy,90,2013-03-20 08:00:00
9:30 AM,53.6,44.6,72,29.77,6.2,East,6.9,-,N/A,,Partly Cloudy,90,2013-03-20 08:30:00
10:00 AM,54,43,55,29.79,19,ESE,4.5,,,,Scattered Clouds,110,2013-03-20 09:00:00
10:00 AM,53.6,42.8,67,29.77,6.2,ESE,4.6,-,N/A,,Partly Cloudy,110,2013-03-20 09:00:00
10:30 AM,55.4,42.8,63,29.77,6.2,ESE,8.1,-,N/A,,Partly Cloudy,110,2013-03-20 09:30:00
11:00 AM,56,43,51,29.79,19,ESE,2.2,,,,Scattered Clouds,110,2013-03-20 10:00:00
11:00 AM,55.4,42.8,63,29.77,6.2,ESE,8.1,-,N/A,,Partly Cloudy,110,2013-03-20 10:00:00
11:30 AM,57.2,42.8,59,29.77,6.2,SE,6.9,-,N/A,,Partly Cloudy,130,2013-03-20 10:30:00
12:00 PM,58,41,42,29.78,19,South,6.7,,,,Scattered Clouds,170,2013-03-20 11:00:00
12:00 PM,57.2,41.0,55,29.77,6.2,South,6.9,-,N/A,,Partly Cloudy,170,2013-03-20 11:00:00
12:30 PM,57.2,41.0,55,29.77,6.2,SSE,6.9,-,N/A,,Partly Cloudy,150,2013-03-20 11:30:00
1:00 PM,56,44,53,29.77,19,ESE,6.7,,,,Scattered Clouds,120,2013-03-20 12:00:00
1:00 PM,57.2,42.8,59,29.77,6.2,ESE,6.9,-,N/A,,Partly Cloudy,120,2013-03-20 12:00:00
1:30 PM,55.4,44.6,67,29.74,6.2,SE,8.1,-,N/A,,Partly Cloudy,130,2013-03-20 12:30:00
2:00 PM,57,40,42,29.75,19,ESE,8.9,,,,Scattered Clouds,120,2013-03-20 13:00:00
2:00 PM,57.2,41.0,55,29.74,6.2,ESE,8.1,-,N/A,,Partly Cloudy,120,2013-03-20 13:00:00
2:30 PM,57.2,41.0,55,29.74,6.2,SE,8.1,-,N/A,,Partly Cloudy,130,2013-03-20 13:30:00
3:00 PM,56,46,60,29.75,19,SE,8.9,,,,Overcast,130,2013-03-20 14:00:00
3:00 PM,55.4,44.6,67,29.74,6.2,SE,8.1,-,N/A,,Partly Cloudy,130,2013-03-20 14:00:00
3:30 PM,55.4,48.2,77,29.71,6.2,ESE,6.9,-,N/A,,Partly Cloudy,110,2013-03-20 14:30:00
4:00 PM,54,46,65,29.73,19,East,4.5,,,,Overcast,100,2013-03-20 15:00:00
4:00 PM,53.6,46.4,77,29.71,-9999.0,East,4.6,-,N/A,,Clear,100,2013-03-20 15:00:00
4:30 PM,53.6,46.4,77,29.71,-9999.0,East,4.6,-,N/A,,Clear,100,2013-03-20 15:30:00
5:00 PM,53,47,73,29.73,19,East,4.5,,,,Overcast,80,2013-03-20 16:00:00
5:00 PM,53.6,46.4,77,29.71,-9999.0,East,4.6,-,N/A,,Clear,80,2013-03-20 16:00:00
5:30 PM,53.6,46.4,77,29.71,6.2,Variable,2.3,-,N/A,,Partly Cloudy,0,2013-03-20 16:30:00
6:00 PM,53,47,72,29.74,19,East,4.5,,,,Overcast,100,2013-03-20 17:00:00
6:00 PM,53.6,46.4,77,29.71,6.2,Variable,1.2,-,N/A,,Partly Cloudy,0,2013-03-20 17:00:00
6:30 PM,51.8,46.4,82,29.71,6.2,Variable,1.2,-,N/A,,Partly Cloudy,0,2013-03-20 17:30:00
7:00 PM,51,46,76,29.74,19,North,2.2,,,Rain,Light Rain,10,2013-03-20 18:00:00
7:00 PM,51.8,46.4,82,29.71,6.2,Variable,2.3,-,N/A,,Scattered Clouds,0,2013-03-20 18:00:00
7:30 PM,50.0,46.4,87,29.71,6.2,ENE,4.6,-,N/A,Rain,Light Rain,60,2013-03-20 18:30:00
8:00 PM,50.0,46.4,87,29.71,6.2,ENE,8.1,-,N/A,Rain,Light Rain,60,2013-03-20 19:00:00
8:30 PM,50.0,44.6,82,29.71,6.2,NE,6.9,-,N/A,,Mostly Cloudy,40,2013-03-20 19:30:00
9:00 PM,50.0,42.8,76,29.71,6.2,ENE,4.6,-,N/A,,Mostly Cloudy,60,2013-03-20 20:00:00
9:30 PM,48.2,42.8,82,29.71,6.2,Variable,3.5,-,N/A,Rain,Light Rain,0,2013-03-20 20:30:00
10:00 PM,47,44,85,29.74,16,Calm,Calm,,,Rain,Light Rain,,2013-03-20 21:00:00
10:00 PM,46.4,44.6,93,29.71,6.2,Variable,1.2,-,N/A,Rain,Light Rain,0,2013-03-20 21:00:00
10:30 PM,46.4,44.6,93,29.71,6.2,Variable,2.3,-,N/A,Rain,Light Rain,0,2013-03-20 21:30:00
11:00 PM,46.4,44.6,93,29.71,6.2,NE,5.8,-,N/A,Rain,Light Rain,40,2013-03-20 22:00:00
11:30 PM,46.4,44.6,93,29.71,6.2,Variable,3.5,-,N/A,Rain,Light Rain,0,2013-03-20 22:30:00